Weather Roundup
Issued by NWS

Home | Current Version | Previous Version | Graphics & Text | Print | Product List | Glossary Off
Versions: 1 2 3 4 5 6 7 8 9 10 11 12 13 14 15 16 17 18 19 20 21 22 23 24 25 26 27 28 29 30 31 32 33 34 35 36 37 38 39 40 41 42 43 44 45 46 47 48 49 50

000
NZUS93 KARX 210059
HRRWXR

CURRENT HOURLY OBSERVATIONS ACROSS
MUCH OF THE UPPER MISSISSIPPI VALLEY
NATIONAL WEATHER SERVICE LA CROSSE WI
800 PM CDT THU JUL 20 2017


...SOUTHEAST MINNESOTA...


CITY           SKY/WX    TMP DP  RH WIND       PRES   REMARKS
ROCHESTER      CLEAR     78  72  81 NE10      29.99F
ROCHESTER/MAYO FAIR      81  70  70 N3        29.99F
WINONA         PTCLDY    79  70  73 CALM      29.98S
AUSTIN         CLEAR     79  70  73 E5        29.98F
ALBERT LEA     CLEAR     81  70  69 E6        29.97F
DODGE CENTER   CLEAR     79  72  78 NE7       29.99F
PRESTON        PTCLDY    77  71  79 NE6       30.00F
OWATONNA       CLEAR     81  72  74 NE8       29.97F
FARIBAULT      CLEAR     81  72  74 NE3       29.98F
$$

...ELSEWHERE IN MINNESOTA...


CITY           SKY/WX    TMP DP  RH WIND       PRES   REMARKS
MINNEAPOLIS    PTCLDY    86  63  45 CALM      29.97F
INTNL FALLS    PTCLDY    70  58  65 W5        29.96S
DULUTH         CLEAR     79  63  57 W5        29.96S
RED WING       CLEAR     79  72  78 CALM      29.96F
REDWOOD FALLS  CLEAR     80  69  69 E8        29.92F
MANKATO        CLEAR     81  71  71 E7        29.95F
WORTHINGTON    CLEAR     81  69  67 E10       29.96F
FAIRMONT       CLOUDY    79  74  84 E6        29.96F
$$

...SOUTHWEST WISCONSIN...


CITY           SKY/WX    TMP DP  RH WIND       PRES   REMARKS
LA CROSSE      CLOUDY    83  71  67 N6        29.96S
PRAIRIE DU CHI CLOUDY    82  70  66 CALM      29.96S
BOSCOBEL       CLOUDY    79  74  84 CALM      29.97R
LONE ROCK      CLOUDY    79  72  79 CALM      29.97R
PLATTEVILLE    CLEAR     81  77  88 CALM      29.99S
FORT MC COY    MOCLDY    78  72  80 N3        29.99S
MAUSTON-NEW LI CLOUDY    77  73  86 NW3       29.97S
VIROQUA        FAIR      79  73  83 CALM      30.00S
WIS DELLS      CLOUDY    79  68  69 CALM      29.98R
$$

...ELSEWHERE IN WISCONSIN...


CITY           SKY/WX    TMP DP  RH WIND       PRES   REMARKS
MILWAUKEE      MOCLDY    78  71  79 S7        29.96S
MADISON        CLOUDY    80  73  79 NW3       29.97R
GREEN BAY      CLEAR     81  72  74 W3        29.94S
EAU CLAIRE     NOT AVBL
BLACK RVR FLS  FAIR      81  69  65 CALM      29.98S
MEDFORD        CLEAR     78  65  63 W5        30.01R
WAUSAU         CLEAR     79  65  62 W7        29.97S
WIS RAPIDS     CLOUDY    81  66  60 NW3       30.00R
MARSHFIELD     CLEAR     77  65  66 NW7       29.99S
RICE LAKE      CLEAR     80  67  63 W3        30.01R
$$

...NORTHEAST IOWA...


CITY           SKY/WX    TMP DP  RH WIND       PRES   REMARKS
WATERLOO       CLOUDY    82  74  76 NE6       29.94F
DUBUQUE        PTCLDY    81  75  82 NE5       29.99R
DECORAH        CLOUDY    81  73  78 CALM      29.98S
MASON CITY     CLOUDY    81  73  76 E3        29.99F
CHARLES CITY   CLOUDY    82  77  83 CALM      29.98F HX  91
OELWEIN        CLOUDY    81  77  89 NE5       29.98F
$$

...ELSEWHERE IN IOWA...


CITY           SKY/WX    TMP DP  RH WIND       PRES   REMARKS
DES MOINES     CLOUDY    95  73  48 W3        29.90F HX 104
IOWA CITY      PTCLDY    88  80  77 NE9       29.94R HX 104
FORT DODGE     CLOUDY    82  73  74 NE6       29.96R
MARSHALLTOWN   PTCLDY    84  78  82 E6        29.93F HX  95
CEDAR RAPIDS   CLEAR     85  80  85 NE13      29.93F HX  99
$$

...NORTHERN ILLINOIS...


CITY           SKY/WX    TMP DP  RH WIND       PRES   REMARKS
CHICAGO-OHARE  MOCLDY    80  69  69 NE7       29.96R
CHICAGO-MIDWAY MOCLDY    80  70  71 E10       29.96R
MOLINE         CLOUDY    89  78  70 NE9       29.93R HX 103
ROCKFORD       MOCLDY    84  76  76 W6        29.97R HX  93
PEORIA         CLOUDY    89  82  79 CALM      29.94R HX 110
$$

NOTE: "FAIR" INDICATES FEW OR NO CLOUDS BELOW 12,000 FEET WITH NO
SIGNIFICANT WEATHER AND/OR OBSTRUCTIONS TO VISIBILITY. WIND
SPEEDS ARE IN MILES-PER-HOUR.




USA.gov is the U.S. government's official web portal to all federal, state and local government web resources and services.